| time (UTC) | temp C | wind direction | speed KPH | gust KPH | rain 1hr cm | rain 24hr cm | rain mn cm | humidity % | barometer mb |
| 20260503223521 | 27 | 346 | 4.8 | 6.4 | 0.00 | 0.00 | 0.00 | 38 | 1010.9 |
| 20260503223016 | 27 | 60 | 3.2 | 4.8 | 0.00 | 0.00 | 0.00 | 37 | 1010.8 |
| 20260503222514 | 27 | 38 | 3.2 | 4.8 | 0.00 | 0.00 | 0.00 | 39 | 1010.9 |
| 20260503222012 | 27 | 323 | 6.4 | 9.7 | 0.00 | 0.00 | 0.00 | 37 | 1010.8 |
| 20260503221510 | 26 | 96 | 3.2 | 3.2 | 0.00 | 0.00 | 0.00 | 40 | 1011.0 |
| 20260503221007 | 26 | 273 | 4.8 | 6.4 | 0.00 | 0.00 | 0.00 | 38 | 1011.0 |
| 20260503220503 | 26 | 291 | 8.0 | 9.7 | 0.00 | 0.00 | 0.00 | 38 | 1011.2 |
| 20260503220000 | 26 | 178 | 0.0 | 1.6 | 0.00 | 0.00 | 0.00 | 38 | 1011.2 |
| 20260503215457 | 26 | 303 | 4.8 | 4.8 | 0.00 | 0.00 | 0.00 | 39 | 1011.0 |
| 20260503214954 | 26 | 7 | 4.8 | 9.7 | 0.00 | 0.00 | 0.00 | 39 | 1011.2 |
| 20260503214452 | 26 | 169 | 3.2 | 4.8 | 0.00 | 0.00 | 0.00 | 39 | 1011.2 |
| 20260503213949 | 26 | 16 | 3.2 | 4.8 | 0.00 | 0.00 | 0.00 | 40 | 1011.3 |
| 20260503213448 | 26 | 333 | 6.4 | 6.4 | 0.00 | 0.00 | 0.00 | 39 | 1011.4 |
| 20260503212943 | 26 | 4 | 3.2 | 3.2 | 0.00 | 0.00 | 0.00 | 39 | 1011.5 |
| 20260503212441 | 26 | 104 | 3.2 | 3.2 | 0.00 | 0.00 | 0.00 | 39 | 1011.5 |
| 20260503211938 | 26 | 140 | 3.2 | 4.8 | 0.00 | 0.00 | 0.00 | 40 | 1011.5 |
| 20260503211435 | 26 | 337 | 6.4 | 6.4 | 0.00 | 0.00 | 0.00 | 39 | 1011.7 |
| 20260503210930 | 26 | 315 | 11.3 | 14.5 | 0.00 | 0.00 | 0.00 | 39 | 1011.8 |
| 20260503210427 | 26 | 169 | 6.4 | 9.7 | 0.00 | 0.00 | 0.00 | 42 | 1011.5 |
| 20260503205922 | 25 | 94 | 3.2 | 4.8 | 0.00 | 0.00 | 0.00 | 44 | 1011.9 |
| 20260503205420 | 25 | 102 | 3.2 | 3.2 | 0.00 | 0.00 | 0.00 | 44 | 1011.7 |
| 20260503204916 | 25 | 33 | 4.8 | 6.4 | 0.00 | 0.00 | 0.00 | 44 | 1012.0 |
| 20260503204413 | 25 | 152 | 4.8 | 6.4 | 0.00 | 0.00 | 0.00 | 44 | 1011.8 |
| 20260503203910 | 25 | 156 | 6.4 | 6.4 | 0.00 | 0.00 | 0.00 | 44 | 1012.0 |
| 20260503203408 | 25 | 304 | 9.7 | 11.3 | 0.00 | 0.00 | 0.00 | 43 | 1012.3 |
| 20260503202904 | 25 | 331 | 6.4 | 9.7 | 0.00 | 0.00 | 0.00 | 42 | 1012.3 |
| 20260503202403 | 25 | 289 | 3.2 | 6.4 | 0.00 | 0.00 | 0.00 | 44 | 1012.2 |
| 20260503201901 | 25 | 346 | 8.0 | 12.9 | 0.00 | 0.00 | 0.00 | 43 | 1012.4 |
| 20260503201357 | 25 | 272 | 1.6 | 3.2 | 0.00 | 0.00 | 0.00 | 44 | 1012.4 |
| 20260503200855 | 25 | 41 | 8.0 | 11.3 | 0.00 | 0.00 | 0.00 | 43 | 1012.5 |
| 20260503200350 | 25 | 330 | 9.7 | 11.3 | 0.00 | 0.00 | 0.00 | 45 | 1012.4 |
| 20260503195848 | 25 | 82 | 1.6 | 3.2 | 0.00 | 0.00 | 0.00 | 46 | 1012.5 |
| 20260503195344 | 24 | 65 | 0.0 | 1.6 | 0.00 | 0.00 | 0.00 | 48 | 1012.6 |
| 20260503194842 | 24 | 320 | 4.8 | 4.8 | 0.00 | 0.00 | 0.00 | 47 | 1012.8 |
| 20260503194338 | 23 | 66 | 9.7 | 14.5 | 0.00 | 0.00 | 0.00 | 48 | 1012.8 |
| 20260503193834 | 24 | 353 | 6.4 | 11.3 | 0.00 | 0.00 | 0.00 | 48 | 1012.7 |
| 20260503193330 | 23 | 140 | 3.2 | 3.2 | 0.00 | 0.00 | 0.00 | 48 | 1012.8 |
| 20260503192826 | 24 | 77 | 1.6 | 1.6 | 0.00 | 0.00 | 0.00 | 49 | 1012.8 |
| 20260503192322 | 23 | 210 | 3.2 | 4.8 | 0.00 | 0.00 | 0.00 | 51 | 1013.0 |
| 20260503191818 | 24 | 98 | 0.0 | 1.6 | 0.00 | 0.00 | 0.00 | 50 | 1013.0 |
| 20260503191315 | 23 | 21 | 3.2 | 3.2 | 0.00 | 0.00 | 0.00 | 50 | 1013.1 |
| 20260503190812 | 24 | 70 | 3.2 | 3.2 | 0.00 | 0.00 | 0.00 | 48 | 1013.1 |
| 20260503190309 | 23 | 104 | 1.6 | 3.2 | 0.00 | 0.00 | 0.00 | 50 | 1012.9 |
| 20260503185806 | 23 | 347 | 6.4 | 9.7 | 0.00 | 0.00 | 0.00 | 50 | 1013.1 |
| 20260503185304 | 23 | 14 | 6.4 | 9.7 | 0.00 | 0.00 | 0.00 | 48 | 1013.1 |
| 20260503184801 | 23 | 157 | 9.7 | 12.9 | 0.00 | 0.00 | 0.00 | 49 | 1013.1 |
| 20260503184258 | 23 | 267 | 8.0 | 11.3 | 0.00 | 0.00 | 0.00 | 48 | 1013.2 |
| 20260503183753 | 23 | 27 | 6.4 | 9.7 | 0.00 | 0.00 | 0.00 | 49 | 1013.1 |
| 20260503183251 | 23 | 266 | 6.4 | 9.7 | 0.00 | 0.00 | 0.00 | 49 | 1013.4 |
| 20260503182749 | 23 | 189 | 3.2 | 4.8 | 0.00 | 0.00 | 0.00 | 48 | 1013.2 |
| 20260503182248 | 23 | 83 | 3.2 | 4.8 | 0.00 | 0.00 | 0.00 | 51 | 1013.4 |
| 20260503181744 | 23 | 17 | 4.8 | 6.4 | 0.00 | 0.00 | 0.00 | 50 | 1013.4 |
| 20260503181241 | 23 | 22 | 6.4 | 9.7 | 0.00 | 0.00 | 0.00 | 49 | 1013.5 |
| 20260503180737 | 23 | 99 | 0.0 | 3.2 | 0.00 | 0.00 | 0.00 | 51 | 1013.6 |
| 20260503180236 | 22 | 108 | 1.6 | 1.6 | 0.00 | 0.00 | 0.00 | 52 | 1013.7 |
| 20260503175732 | 22 | 131 | 1.6 | 3.2 | 0.00 | 0.00 | 0.00 | 51 | 1013.4 |
| 20260503175230 | 22 | 77 | 1.6 | 1.6 | 0.00 | 0.00 | 0.00 | 52 | 1013.6 |
| 20260503174726 | 21 | 345 | 3.2 | 3.2 | 0.00 | 0.00 | 0.00 | 54 | 1013.7 |
| 20260503174224 | 21 | 5 | 6.4 | 6.4 | 0.00 | 0.00 | 0.00 | 54 | 1013.6 |
| 20260503173719 | 21 | 307 | 6.4 | 6.4 | 0.00 | 0.00 | 0.00 | 53 | 1013.6 |
| 20260503173215 | 21 | 326 | 4.8 | 6.4 | 0.00 | 0.00 | 0.00 | 54 | 1013.6 |
| 20260503172712 | 21 | 80 | 1.6 | 3.2 | 0.00 | 0.00 | 0.00 | 54 | 1013.8 |
| 20260503172209 | 21 | 57 | 1.6 | 3.2 | 0.00 | 0.00 | 0.00 | 55 | 1013.7 |
| 20260503171705 | 21 | 34 | 3.2 | 6.4 | 0.00 | 0.00 | 0.00 | 54 | 1013.6 |
| 20260503171203 | 21 | 57 | 1.6 | 1.6 | 0.00 | 0.00 | 0.00 | 55 | 1013.8 |
| 20260503170700 | 21 | 48 | 1.6 | 3.2 | 0.00 | 0.00 | 0.00 | 55 | 1013.9 |
| 20260503170157 | 20 | 86 | 0.0 | 0.0 | 0.00 | 0.00 | 0.00 | 56 | 1013.8 |
| 20260503160124 | 19 | 90 | 1.6 | 1.6 | 0.00 | 0.00 | 0.00 | 56 | 1013.8 |
| 20260503150553 | 18 | 68 | 0.0 | 1.6 | 0.00 | 0.00 | 0.00 | 61 | 1014.1 |
| 20260503130943 | 10 | 52 | 0.0 | 0.0 | 0.00 | 0.00 | 0.00 | 89 | 1013.6 |
| 20260503130441 | 10 | 69 | 0.0 | 0.0 | 0.00 | 0.00 | 0.00 | 89 | 1013.7 |
| 20260503110343 | 11 | 111 | 0.0 | 0.0 | 0.00 | 0.00 | 0.00 | 82 | 1013.9 |
| 20260503090234 | 13 | 59 | 0.0 | 0.0 | 0.00 | 0.00 | 0.00 | 70 | 1013.9 |
| 20260503081202 | 16 | 77 | 0.0 | 0.0 | 0.00 | 0.00 | 0.00 | 58 | 1014.1 |
| 20260503080657 | 17 | 59 | 0.0 | 0.0 | 0.00 | 0.00 | 0.00 | 53 | 1014.1 |
| 20260503080155 | 18 | 78 | 0.0 | 0.0 | 0.00 | 0.00 | 0.00 | 51 | 1014.3 |
| 20260503072631 | 18 | 54 | 0.0 | 1.6 | 0.00 | 0.00 | 0.00 | 47 | 1014.1 |
| 20260503072128 | 18 | 50 | 3.2 | 4.8 | 0.00 | 0.00 | 0.00 | 48 | 1013.9 |
| 20260503071625 | 19 | 68 | 3.2 | 4.8 | 0.00 | 0.00 | 0.00 | 47 | 1014.1 |
| 20260503071122 | 18 | 30 | 6.4 | 9.7 | 0.00 | 0.00 | 0.00 | 46 | 1014.1 |
| 20260503070619 | 18 | 52 | 1.6 | 1.6 | 0.00 | 0.00 | 0.00 | 47 | 1014.2 |
| 20260503070117 | 18 | 33 | 0.0 | 0.0 | 0.00 | 0.00 | 0.00 | 47 | 1014.2 |
| 20260503055037 | 18 | 51 | 0.0 | 1.6 | 0.00 | 0.00 | 0.00 | 52 | 1013.9 |
| 20260503054533 | 18 | 53 | 0.0 | 0.0 | 0.00 | 0.00 | 0.00 | 53 | 1014.0 |
| 20260503054031 | 18 | 60 | 3.2 | 3.2 | 0.00 | 0.00 | 0.00 | 53 | 1013.8 |
| 20260503053529 | 18 | 57 | 0.0 | 0.0 | 0.00 | 0.00 | 0.00 | 55 | 1013.9 |
| 20260503053026 | 18 | 38 | 0.0 | 0.0 | 0.00 | 0.00 | 0.00 | 54 | 1014.0 |
| 20260503052523 | 18 | 23 | 4.8 | 4.8 | 0.00 | 0.00 | 0.00 | 54 | 1013.9 |
| 20260503052019 | 18 | 61 | 0.0 | 0.0 | 0.00 | 0.00 | 0.00 | 54 | 1013.9 |
| 20260503051514 | 18 | 31 | 3.2 | 3.2 | 0.00 | 0.00 | 0.00 | 53 | 1014.1 |
| 20260503051013 | 18 | 37 | 3.2 | 3.2 | 0.00 | 0.00 | 0.00 | 54 | 1013.8 |
| 20260503050508 | 18 | 67 | 0.0 | 0.0 | 0.00 | 0.00 | 0.00 | 55 | 1014.0 |
| 20260503050006 | 18 | 46 | 1.6 | 3.2 | 0.00 | 0.00 | 0.00 | 55 | 1013.8 |
| 20260503045503 | 18 | 52 | 0.0 | 1.6 | 0.00 | 0.00 | 0.00 | 55 | 1013.8 |
| 20260503045000 | 18 | 81 | 0.0 | 0.0 | 0.00 | 0.00 | 0.00 | 55 | 1013.8 |
| 20260503044456 | 18 | 49 | 1.6 | 1.6 | 0.00 | 0.00 | 0.00 | 55 | 1013.6 |
| 20260503043954 | 18 | 42 | 0.0 | 0.0 | 0.00 | 0.00 | 0.00 | 55 | 1013.7 |
| 20260503043450 | 18 | 59 | 0.0 | 0.0 | 0.00 | 0.00 | 0.00 | 55 | 1013.7 |
| 20260503042946 | 18 | 70 | 0.0 | 0.0 | 0.00 | 0.00 | 0.00 | 55 | 1013.6 |
| 20260503042443 | 18 | 72 | 0.0 | 0.0 | 0.00 | 0.00 | 0.00 | 55 | 1013.7 |
| 20260503041940 | 18 | 67 | 0.0 | 0.0 | 0.00 | 0.00 | 0.00 | 56 | 1013.6 |
| 20260503041437 | 18 | 89 | 0.0 | 1.6 | 0.00 | 0.00 | 0.00 | 57 | 1013.6 |
| 20260503040934 | 18 | 57 | 1.6 | 1.6 | 0.00 | 0.00 | 0.00 | 59 | 1013.4 |
| 20260503040431 | 18 | 67 | 0.0 | 1.6 | 0.00 | 0.00 | 0.00 | 59 | 1013.3 |
| 20260503035929 | 18 | 72 | 0.0 | 0.0 | 0.00 | 0.00 | 0.00 | 59 | 1013.3 |
| 20260503035425 | 18 | 54 | 0.0 | 1.6 | 0.00 | 0.00 | 0.00 | 59 | 1013.3 |
| 20260503034923 | 18 | 69 | 0.0 | 0.0 | 0.00 | 0.00 | 0.00 | 58 | 1013.2 |
| 20260503034420 | 18 | 61 | 0.0 | 0.0 | 0.00 | 0.00 | 0.00 | 58 | 1013.1 |
| 20260503033917 | 18 | 10 | 3.2 | 4.8 | 0.00 | 0.00 | 0.00 | 57 | 1012.9 |
| 20260503033415 | 19 | 65 | 0.0 | 0.0 | 0.00 | 0.00 | 0.00 | 56 | 1012.8 |
| 20260503032913 | 19 | 321 | 1.6 | 3.2 | 0.00 | 0.00 | 0.00 | 56 | 1012.8 |
| 20260503032411 | 19 | 41 | 0.0 | 1.6 | 0.00 | 0.00 | 0.00 | 55 | 1012.7 |
| 20260503031908 | 19 | 68 | 1.6 | 3.2 | 0.00 | 0.00 | 0.00 | 55 | 1012.9 |
| 20260503031406 | 19 | 30 | 1.6 | 1.6 | 0.00 | 0.00 | 0.00 | 54 | 1012.8 |
| 20260503030902 | 20 | 122 | 1.6 | 1.6 | 0.00 | 0.00 | 0.00 | 53 | 1012.8 |
| 20260503030359 | 20 | 20 | 3.2 | 4.8 | 0.00 | 0.00 | 0.00 | 53 | 1012.7 |
| 20260503025855 | 20 | 12 | 4.8 | 4.8 | 0.00 | 0.00 | 0.00 | 52 | 1012.5 |
| 20260503025353 | 20 | 31 | 1.6 | 3.2 | 0.00 | 0.00 | 0.00 | 52 | 1012.7 |
| 20260503024850 | 20 | 62 | 0.0 | 0.0 | 0.00 | 0.00 | 0.00 | 51 | 1012.8 |
| 20260503024346 | 20 | 198 | 3.2 | 4.8 | 0.00 | 0.00 | 0.00 | 51 | 1012.7 |
| 20260503023843 | 20 | 77 | 1.6 | 1.6 | 0.00 | 0.00 | 0.00 | 51 | 1012.5 |
| 20260503023340 | 20 | 267 | 11.3 | 14.5 | 0.00 | 0.00 | 0.00 | 50 | 1012.6 |
| 20260503022837 | 20 | 89 | 0.0 | 1.6 | 0.00 | 0.00 | 0.00 | 50 | 1012.6 |
| 20260503022332 | 20 | 299 | 8.0 | 12.9 | 0.00 | 0.00 | 0.00 | 49 | 1012.5 |
| 20260503021828 | 21 | 210 | 9.7 | 14.5 | 0.00 | 0.00 | 0.00 | 49 | 1012.6 |
| 20260503021325 | 21 | 316 | 9.7 | 12.9 | 0.00 | 0.00 | 0.00 | 48 | 1012.7 |
| 20260503020822 | 21 | 343 | 4.8 | 4.8 | 0.00 | 0.00 | 0.00 | 48 | 1012.6 |
| 20260503020320 | 21 | 310 | 3.2 | 3.2 | 0.00 | 0.00 | 0.00 | 48 | 1012.6 |
| 20260503015816 | 21 | 20 | 1.6 | 1.6 | 0.00 | 0.00 | 0.00 | 48 | 1012.4 |
| 20260503015313 | 21 | 81 | 0.0 | 0.0 | 0.00 | 0.00 | 0.00 | 48 | 1012.6 |
| 20260503014809 | 21 | 253 | 6.4 | 9.7 | 0.00 | 0.00 | 0.00 | 48 | 1012.7 |
| 20260503014307 | 21 | 56 | 1.6 | 4.8 | 0.00 | 0.00 | 0.00 | 48 | 1012.4 |
| 20260503013804 | 22 | 341 | 8.0 | 9.7 | 0.00 | 0.00 | 0.00 | 46 | 1012.6 |
| 20260503013301 | 22 | 101 | 3.2 | 6.4 | 0.00 | 0.00 | 0.00 | 47 | 1012.6 |
| 20260503012758 | 22 | 103 | 6.4 | 6.4 | 0.00 | 0.00 | 0.00 | 46 | 1012.5 |
| 20260503012256 | 22 | 0 | 6.4 | 12.9 | 0.00 | 0.00 | 0.00 | 46 | 1012.6 |
| 20260503011752 | 22 | 291 | 3.2 | 3.2 | 0.00 | 0.00 | 0.00 | 47 | 1012.5 |
| 20260503011249 | 23 | 190 | 8.0 | 12.9 | 0.00 | 0.00 | 0.00 | 45 | 1012.7 |
| 20260503010746 | 23 | 313 | 1.6 | 3.2 | 0.00 | 0.00 | 0.00 | 46 | 1012.6 |
| 20260503010243 | 22 | 306 | 1.6 | 3.2 | 0.00 | 0.00 | 0.00 | 47 | 1012.6 |
| 20260503005740 | 22 | 165 | 1.6 | 3.2 | 0.00 | 0.00 | 0.00 | 47 | 1012.6 |
| 20260503005237 | 22 | 329 | 4.8 | 9.7 | 0.00 | 0.00 | 0.00 | 46 | 1012.8 |
| 20260503004733 | 23 | 72 | 12.9 | 14.5 | 0.00 | 0.00 | 0.00 | 45 | 1012.7 |
| 20260503004232 | 23 | 222 | 6.4 | 9.7 | 0.00 | 0.00 | 0.00 | 45 | 1012.8 |
| 20260503003728 | 23 | 12 | 4.8 | 6.4 | 0.00 | 0.00 | 0.00 | 45 | 1012.7 |
| 20260503003225 | 23 | 292 | 4.8 | 9.7 | 0.00 | 0.00 | 0.00 | 47 | 1012.7 |
| 20260503002722 | 23 | 185 | 6.4 | 9.7 | 0.00 | 0.00 | 0.00 | 46 | 1013.0 |
| 20260503002219 | 23 | 255 | 4.8 | 6.4 | 0.00 | 0.00 | 0.00 | 46 | 1013.0 |
| 20260503001715 | 23 | 296 | 8.0 | 12.9 | 0.00 | 0.00 | 0.00 | 45 | 1012.8 |
| 20260503001211 | 23 | 30 | 4.8 | 11.3 | 0.00 | 0.00 | 0.00 | 45 | 1013.0 |
| 20260503000710 | 23 | 329 | 12.9 | 16.1 | 0.00 | 0.00 | 0.00 | 44 | 1012.9 |
| 20260503000207 | 23 | 287 | 6.4 | 9.7 | 0.00 | 0.00 | 0.00 | 45 | 1013.0 |
| 20260502235704 | 23 | 12 | 8.0 | 9.7 | 0.00 | 0.00 | 0.00 | 45 | 1013.1 |
| 20260502235201 | 23 | 204 | 4.8 | 9.7 | 0.00 | 0.00 | 0.00 | 45 | 1013.0 |
| 20260502234657 | 23 | 351 | 6.4 | 6.4 | 0.00 | 0.00 | 0.00 | 45 | 1013.1 |
| 20260502234155 | 23 | 198 | 1.6 | 3.2 | 0.00 | 0.00 | 0.00 | 44 | 1013.3 |
| 20260502233650 | 23 | 42 | 3.2 | 3.2 | 0.00 | 0.00 | 0.00 | 45 | 1013.3 |
| 20260502233147 | 22 | 67 | 3.2 | 3.2 | 0.00 | 0.00 | 0.00 | 45 | 1013.2 |
| 20260502232643 | 23 | 209 | 9.7 | 12.9 | 0.00 | 0.00 | 0.00 | 43 | 1013.6 |
| 20260502232141 | 23 | 324 | 3.2 | 4.8 | 0.00 | 0.00 | 0.00 | 47 | 1013.4 |
| 20260502231637 | 23 | 168 | 1.6 | 3.2 | 0.00 | 0.00 | 0.00 | 47 | 1013.5 |
| 20260502231135 | 23 | 349 | 4.8 | 6.4 | 0.00 | 0.00 | 0.00 | 47 | 1013.8 |
| 20260502230633 | 22 | 125 | 1.6 | 1.6 | 0.00 | 0.00 | 0.00 | 50 | 1013.6 |
| 20260502230132 | 23 | 167 | 1.6 | 1.6 | 0.00 | 0.00 | 0.00 | 48 | 1013.8 |
| 20260502225627 | 22 | 251 | 6.4 | 16.1 | 0.00 | 0.00 | 0.00 | 50 | 1013.8 |
| 20260502225125 | 22 | 312 | 4.8 | 11.3 | 0.00 | 0.00 | 0.00 | 51 | 1013.9 |
| 20260502224620 | 22 | 187 | 6.4 | 9.7 | 0.00 | 0.00 | 0.00 | 51 | 1014.1 |
| 20260502224117 | 22 | 293 | 8.0 | 11.3 | 0.00 | 0.00 | 0.00 | 50 | 1014.0 |